Takotna, AK

6:26 AM AKDT on July 24, 2016 (GMT -0800)
Tatalina

Weather History for PATL - October, 2013

Change the Weather History Date:

Friday, October 11, 2013

  Actual Average Record
Temperature  
Mean Temperature 42 °F -  
Max Temperature 44 °F 31 °F 44 °F (2013)
Min Temperature 39 °F 22 °F 14 °F (1996)
Degree Days  
Heating Degree Days 24    
Moisture  
Dew Point 38 °F    
Average Humidity 91    
Maximum Humidity 96    
Minimum Humidity 78    
Precipitation  
Precipitation 0.00 in - - ()
Sea Level Pressure  
Sea Level Pressure 29.70 in    
Wind  
Wind Speed 6 mph (South)    
Max Wind Speed 12 mph    
Max Gust Speed 17 mph    
Visibility 10 miles    
Events Rain    
Averages and records for this station are not official NWS values.
T = Trace of Precipitation, MM = Missing Value Source: NWS Daily Summary

Daily Weather History Graph

Daily Weather History Graph

Search for Another Location

Airport or City:

Trip Planner

Search our weather history database for the weather conditions in past years. The results will help you decide how hot, cold, wet, or windy it might be!

Date:

Astronomy

Oct. 11, 2013 Rise Set
Actual Time 9:00 AM AKDT 7:19 PM AKDT
Civil Twilight 8:14 AM AKDT 8:04 PM AKDT
Nautical Twilight 7:21 AM AKDT 8:57 PM AKDT
Astronomical Twilight 6:27 AM AKDT 9:51 PM AKDT
Moon 4:52 PM AKDT (10/11) No Moon Set
Length of Visible Light 11h 50m
Length of Day
10h 18m
Waxing Crescent, 49% of the Moon is Illuminated
Oct 11
Waxing Crescent
Oct 11
First Quarter
Oct 18
Full
Oct 26
Last Quarter
Nov 3
New

Hourly Weather History & Observations

Time (AKDT) Temp. Windchill Dew Point Humidity Pressure Visibility Wind Dir Wind Speed Gust Speed Precip Events Conditions
12:55 AM 40.6 °F 36.7 °F 39.6 °F 96% 29.61 in 10.0 mi SSW 5.8 mph - N/A   Overcast
1:55 AM 40.6 °F 38.6 °F 39.6 °F 96% 29.62 in 10.0 mi South 3.5 mph - N/A   Overcast
2:55 AM 40.5 °F 37.3 °F 39.4 °F 96% 29.63 in 10.0 mi Variable 4.6 mph - N/A   Overcast
3:55 AM 40.3 °F - 39.0 °F 95% 29.65 in 10.0 mi Variable 2.3 mph - N/A   Mostly Cloudy
4:55 AM 39.9 °F 35.1 °F 38.8 °F 96% 29.66 in 10.0 mi WSW 6.9 mph - N/A Rain Light Rain Showers
5:55 AM 39.7 °F 34.3 °F 38.7 °F 96% 29.67 in 10.0 mi SSW 8.1 mph - N/A   Overcast
6:55 AM 39.7 °F 33.7 °F 38.3 °F 95% 29.68 in 10.0 mi WSW 9.2 mph - N/A   Overcast
7:55 AM 39.9 °F 33.9 °F 38.3 °F 94% 29.69 in 10.0 mi SW 9.2 mph - N/A   Overcast
8:55 AM 39.9 °F 32.9 °F 38.1 °F 93% 29.70 in 10.0 mi SSW 11.5 mph 17.3 mph N/A Rain Light Rain Showers
9:55 AM 39.9 °F 34.5 °F 37.9 °F 93% 29.72 in 10.0 mi SW 8.1 mph - N/A   Overcast
10:55 AM 39.9 °F 33.4 °F 38.5 °F 95% 29.74 in 10.0 mi SW 10.4 mph - N/A   Mostly Cloudy
11:55 AM 39.9 °F 35.8 °F 38.5 °F 95% 29.76 in 10.0 mi SW 5.8 mph - N/A Rain Light Rain Showers
12:55 PM 40.6 °F 36.0 °F 38.3 °F 91% 29.77 in 10.0 mi SSW 6.9 mph 16.1 mph N/A   Overcast
1:55 PM 41.0 °F 36.4 °F 39.4 °F 94% 29.77 in 10.0 mi SW 6.9 mph - N/A Rain Light Rain Showers
2:55 PM 42.4 °F 38.1 °F 39.2 °F 88% 29.77 in 10.0 mi Variable 6.9 mph - N/A   Overcast
3:55 PM 43.2 °F 39.0 °F 38.3 °F 83% 29.76 in 10.0 mi SSW 6.9 mph - N/A   Mostly Cloudy
4:55 PM 44.2 °F 39.7 °F 37.8 °F 78% 29.75 in 10.0 mi South 8.1 mph 15.0 mph N/A Rain Light Rain Showers
5:55 PM 42.1 °F 40.2 °F 39.2 °F 90% 29.74 in 10.0 mi Variable 3.5 mph - N/A Rain Light Rain Showers
6:55 PM 41.9 °F - 38.1 °F 86% 29.73 in 10.0 mi East 2.3 mph - N/A   Mostly Cloudy
7:55 PM 41.9 °F 40.0 °F 37.2 °F 83% 29.72 in 10.0 mi NNE 3.5 mph - N/A   Mostly Cloudy
8:55 PM 40.8 °F 37.8 °F 36.9 °F 86% 29.71 in 10.0 mi ENE 4.6 mph - N/A   Mostly Cloudy
9:55 PM 40.6 °F 36.7 °F 36.9 °F 86% 29.69 in 10.0 mi ENE 5.8 mph - N/A   Overcast
10:55 PM 39.7 °F 34.9 °F 36.3 °F 88% 29.68 in 10.0 mi East 6.9 mph - N/A   Mostly Cloudy
11:55 PM 39.4 °F 33.8 °F 35.1 °F 84% 29.66 in 10.0 mi ENE 8.1 mph 16.1 mph N/A   Mostly Cloudy